Location: Carnières
(50.1682°N, 3.3474°E)
Time: 14:23:55
(UTC+00:00)

Cosmos 1408 - Pass Details

Date: 23 May 2024
Orbit: 363 x 377 km, 82.6° (Epoch: 16 June)

Event Time Altitude Azimuth Distance (km) Brightness Sun altitude
Exits shadow 01:22:03 12° 131° (SE) 1,236 4.4 -15.9°
Maximum altitude 01:23:47 19° 90° (E) 964 4.3 -15.8°
Drops below altitude 10° 01:25:57 10° 43° (NE) 1,364 6.0 -15.6°
Sets 01:28:17 0° 24° (NNE) 2,219 7.8 -15.5°
